Location: Trois-Rivi�res
(46.3500°N, 72.5500°W)
Time: 06:14:52
(UTC-05:00)

Daily predictions for brighter satellites

Satellite Brightness Start Highest point End
(mag) Time Altitude Azimuth Time Altitude Azimuth Time Altitude Azimuth
ATLAS 2AS CENTAUR R/B 3.3 16:24:47 10° SSW 16:32:20 57° ESE 16:40:15 10° NE
Meteor 1-18 Rocket 4.3 16:28:25 10° S 16:33:57 70° E 16:39:37 10° NNE
NOSS 2-3 (E) 4.1 16:30:38 10° SW 16:35:21 82° NW 16:40:59 10° NE
Cosmos 1378 Rocket 3.8 16:31:06 10° SSW 16:35:32 78° W 16:40:01 10° N
SL-16 R/B 4.5 16:35:06 10° N 16:39:54 24° WNW 16:44:39 10° WSW
MSX 4.0 16:34:30 10° SSE 16:40:18 86° WSW 16:46:07 10° NNW
ALOS 3.8 16:38:25 10° E 16:40:59 15° ENE 16:43:33 10° NNE
IRAS Rocket 4.3 16:37:38 10° SE 16:43:00 58° ENE 16:48:23 10° N
Cosmos 158 Rocket 4.2 16:40:03 10° N 16:44:56 43° ENE 16:49:40 10° SE
CSL-04 Rocket 3.7 16:41:00 10° SSE 16:46:20 60° ENE 16:51:47 10° N
USA 215 3.3 16:41:01 10° SE 16:47:34 89° SW 16:54:08 10° NW
Meteor 1-28 Rocket 4.3 16:46:04 10° NE 16:49:17 26° E 16:52:31 10° SSE
Cosmos 1634 Rocket 4.2 16:43:33 10° S 16:49:47 80° W 16:56:06 10° N
CZ-4 R/B 1.9 16:48:04 10° SE 16:51:37 34° ENE 16:55:14 10° N
Cosmos 2369 Rocket 4.3 16:48:42 10° W 16:52:29 18° NW 16:56:18 10° N
Cosmos 1697 Rocket 4.1 16:52:04 10° SE 16:55:51 19° E 16:59:19 11° ENE
OPS 6432 4.4 16:53:08 10° SW 16:56:39 72° NW 16:59:41 10° NE
Cosmos 1743 2.7 16:55:04 10° N 16:58:57 71° E 17:02:50 10° SSE
Meteor 1-19 Rocket 4.4 16:54:03 10° S 16:59:33 53° E 17:05:11 10° NNE
Cosmos 2150 Rocket 4.2 16:54:20 10° SSW 16:59:48 87° WNW 17:05:17 10° NNE
Cosmos 2082 3.7 16:59:12 10° NNW 17:04:45 59° ENE 17:10:18 10° SE
Cosmos 2266 Rocket 4.1 17:02:53 10° N 17:08:46 49° ENE 17:14:42 10° SSE
Cosmos 1655 Rocket 4.2 17:02:32 10° N 17:08:58 85° W 17:15:22 10° S
CENTAUR R/B 3.7 17:03:18 10° NNW 17:10:07 35° NNE 17:17:18 11° E
Abrixas rocket 2.2 17:09:31 10° W 17:12:46 70° NNW 17:14:54 20° ENE
Cosmos 2227 Rocket 2.2 17:10:55 10° NNW 17:16:37 87° ENE 17:22:17 10° SSE
ISS -1.6 17:16:17 10° W 17:19:10 28° SW 17:22:02 10° SSE
CZ-2C R/B 4.3 17:15:26 10° SSW 17:20:08 35° W 17:24:50 10° NNW
SPOT 3 Rocket 4.1 17:16:33 10° SE 17:21:12 35° ENE 17:25:51 10° N
Cosmos 1455 Rocket 3.1 17:17:13 10° N 17:21:39 82° W 17:26:02 10° S
ERS-2 2.9 17:20:21 10° SE 17:23:36 30° ENE 17:26:52 10° N
CORIOLIS 4.2 17:18:36 10° SSE 17:24:01 89° ENE 17:29:27 10° NNW
Cosmos 1544 Rocket 3.9 17:21:34 10° NNW 17:25:55 68° W 17:30:12 10° S
MINOTAUR IV R/B 4.5 17:24:33 10° NNW 17:29:03 70° ENE 17:33:31 10° SSE
Cosmos 1271 Rocket 3.7 17:25:34 10° NNW 17:29:15 50° W 17:32:58 10° S
Meteor 2-9 Rocket 4.1 17:23:54 10° N 17:29:27 81° ENE 17:34:50 10° SSE
Ariane Rocket 3.4 17:25:03 10° S 17:30:04 68° WSW 17:35:08 10° NNW
USA 161 4.2 17:29:13 10° NNW 17:31:24 19° WNW 17:33:39 10° WSW
MOS 1 4.3 17:26:46 10° SE 17:32:17 55° ENE 17:37:50 10° N
USA 116 3.2 17:30:22 19° NNE 17:32:26 56° E 17:35:28 10° S
YAOGAN 1 2.4 17:29:40 10° SSE 17:33:58 73° ENE 17:38:19 10° N
CZ-4 R/B 4.3 17:32:27 10° SSE 17:36:34 72° ENE 17:40:43 10° N
Cosmos 1980 Rocket 3.3 17:32:19 10° SSE 17:36:42 23° ESE 17:37:46 22° E
Meteor 1-23 Rocket 4.4 17:32:09 10° S 17:37:42 52° E 17:43:12 10° NNE
USA 238 DEB 4.3 17:31:07 10° NW 17:38:07 62° WSW 17:45:11 10° SSE
Cosmos 1269 Rocket 3.9 17:32:51 10° NNW 17:38:11 76° ENE 17:43:29 10° SSE
USA 238 4.3 17:31:13 10° NW 17:38:13 63° WSW 17:45:17 10° SSE
Gblst 52 Del rocket 4.2 17:35:47 10° WNW 17:41:23 80° NNE 17:46:02 18° ESE
Cosmos 1125 Rocket 3.4 17:37:31 10° SSW 17:42:48 74° ESE 17:47:09 15° NNE
Cosmos 2297 Rocket 2.5 17:37:34 10° NNW 17:43:13 70° WSW 17:48:49 10° SSE
COSMO-SKYMED 1 2.6 17:44:36 19° NNE 17:47:32 55° E 17:51:47 10° S
Cosmos 1048 Rocket 4.3 17:43:21 10° NNW 17:48:44 75° WSW 17:54:05 10° SSE
CZ-2C R/B 3.7 17:44:05 10° NNE 17:48:47 90° WNW 17:53:32 10° SSW
Cosmos 1656 3.6 17:45:49 10° SSW 17:51:22 74° ESE 17:55:05 21° NNE
IRS-1A Rocket 4.5 17:46:27 10° S 17:52:01 72° WSW 17:57:34 10° NNW
SJ 16-02 1.3 17:50:45 10° SSW 17:55:08 86° WNW 17:58:00 22° NNE
MONITOR-E 4.0 17:55:27 10° SSE 17:58:30 87° ENE 18:01:34 10° NNW
Cosmos 372 Rocket 4.0 17:54:10 10° SSW 17:59:23 85° WNW 18:03:11 19° NNE
COSMOS 2455 4.4 17:59:36 10° NNW 18:03:12 18° NNE 18:03:12 18° NNE
Meteor 2-11 Rocket 4.4 17:59:29 10° S 18:05:31 62° E 18:11:35 10° NNE
Cosmos 1553 Rocket 4.5 18:01:08 10° SSE 18:06:54 37° E 18:07:53 35° ENE
NOSS 3-2 (A) 4.3 17:59:32 10° NW 18:06:59 71° SW 18:15:07 10° SSE
MTI 3.9 18:07:57 58° NNW 18:08:28 74° WNW 18:11:42 10° SSW
Meteor 2-4 Rocket 4.1 18:03:52 10° SSW 18:09:13 60° WNW 18:14:32 10° N
SL-24 R/B - RUBIN 2 4.5 18:08:04 10° SSW 18:13:58 48° ESE 18:14:58 43° E
NOAA 12 4.0 18:09:23 10° SSE 18:14:39 89° WSW 18:19:57 10° NNW
NOSS 3-2 (C) 4.1 18:07:11 10° NW 18:14:41 80° SW 18:22:53 10° SSE
Cosmos 1745 Rocket 4.3 18:11:02 10° N 18:24:43 - SSE 18:16:25 40° ENE
Okean 1-7 Rocket 3.6 18:12:46 10° S 18:16:45 57° ESE 18:16:45 57° ESE
ALOS 2.3 18:13:09 10° S 18:17:49 77° WSW 18:22:31 10° NNW
Cosmos 1025 Rocket 2.8 18:14:55 10° S 18:19:13 83° E 18:19:59 59° NNE
Cosmos 2263 Rocket 3.6 18:15:01 10° N 18:17:42 22° NNE 18:17:42 22° NNE
ATLAS 3B R/B 4.3 18:14:57 10° NW 18:20:45 33° WSW 18:26:25 10° S
Cosmos 2369 4.1 18:15:14 10° SW 18:20:51 61° WNW 18:24:30 22° NNE
Cosmos 2278 4.1 18:15:48 10° SW 18:21:25 63° WNW 18:24:58 23° NNE
ATLAS 2AS CENTAUR R/B 3.8 18:16:01 10° WSW 18:23:39 48° NW 18:29:08 20° NNE
FENGYUN 3A 3.8 18:18:27 10° S 18:23:49 75° WSW 18:29:13 10° NNW
Cosmos 2360 4.3 18:19:21 10° S 18:24:51 50° ESE 18:24:59 50° ESE
CZ-4 R/B 4.0 18:23:49 10° SW 18:26:45 21° W 18:29:47 10° NW
Cosmos 1241 Rocket 4.4 18:21:53 10° SSW 18:28:16 84° ESE 18:30:28 44° NE
Cosmos 2084 4.1 18:29:47 10° SSW 18:32:45 43° SSW 18:32:45 43° SSW
DNEPR-1 R/B 4.0 18:28:51 10° NW 18:33:54 87° SW 18:36:20 37° SSE
EO 1 Del DPAF 3.8 18:33:38 53° NW 18:33:55 55° WNW 18:37:39 10° SSW
SKYMED 2 4.5 18:33:13 23° N 18:35:35 48° WNW 18:39:45 10° SW
Cosmos 1697 Rocket 2.8 18:33:33 10° SSW 18:39:11 72° WNW 18:41:05 43° N
NOSS 3-4 (A) 3.4 18:38:09 10° SW 18:44:23 88° NW 18:45:48 58° NE
NOSS 3-4 (C) 3.4 18:38:14 10° SW 18:44:29 89° NW 18:45:52 58° NE
Okean 2 4.3 18:44:00 10° SSW 18:47:57 46° WNW 18:48:05 46° WNW
Gbstr 26 Del rocket 4.1 18:49:49 10° WSW 18:57:47 86° NNW 18:58:45 70° NE
CENTAUR R/B 3.0 18:53:54 10° NW 19:01:47 89° SW 19:04:34 48° SE
Cosmos 2251 Rocket 4.2 19:09:02 10° NNW 19:13:35 51° W 19:13:35 51° W
S3M 4.3 19:12:15 10° SSW 19:17:04 57° SSW 19:17:04 57° SSW
Cosmos 1980 Rocket 2.7 19:14:38 10° SW 19:19:36 56° W 19:19:36 56° W
SJ 16-02 4.2 19:32:45 10° WNW 19:34:28 12° NW 19:35:01 12° NW
